Torna al catalogo

STARLINK-35870

AttivoComunicazioniVLEO
NORAD 66572·PAYLOAD·🇺🇸 United States

Lanciato Nov 21, 2025 da Cape Canaveral Space Force Station

Loading…

Prossimi Passaggi (prossime 24 ore)

TLE

AggiornatoSource: CelesTrak SupGP

Epoca: Sep 15, 2026, 03:31 UTC

1 66572C 25268R   26258.14701389  .00043612  00000+0  15798-2 0  2580
2 66572  43.0013 357.4170 0001734 271.4510   2.2754 15.27552776    19

Traccia STARLINK-35870 in tempo reale con AllMySat

Download on the App Store